[[{"header":{"parameterUnit":"m.s-1","parameterCategory":2,"la1":30.2991,"la2":30.254,"lo1":-89.0895,"lo2":-89.0444,"dy":0.0017,"dx":0.0017,"nx":28,"ny":28,"refTime":"2024-05-01T03:00:00:Z","depth":"0","parameterNumber":2,"parameterNumberName":"U-component_of_CURRENTS"},"data":[0,0,0,0,0,0,0,0,0,0,0,0,0,0,0,0,0,0,0,0,0,0,0,0,0,0,0,0,0,0,0,0,0,0,0,0,0,0,0,0,0,0,0,0,0,0,0,0,0,0,0,0,0,0,0,0,0,0,-0.3385,-0.3385,0,-0.3343,-0.3342,-0.3341,-0.3285,-0.3284,-0.3284,-0.3283,-0.3175,-0.3173,-0.317,0,0,0,0,0,0,0,0,0,0,0,0,0,-0.3383,-0.3383,-0.3385,-0.3385,-0.3385,-0.3343,-0.3342,-0.3341,-0.3285,-0.3284,-0.3284,-0.3283,-0.3176,-0.3173,-0.317,0,0,0,0,0,0,0,0,0,0,0,0,0,-0.3362,-0.3383,-0.3385,-0.3355,-0.3352,-0.3343,-0.3342,-0.334,-0.3285,-0.3284,-0.3284,-0.3283,-0.3177,-0.3173,-0.317,-0.3163,0,0,-0.3159,-0.3157,0,0,0,0,0,0,0,0,-0.3364,-0.3362,-0.3359,-0.3357,-0.3354,-0.3322,-0.3301,-0.3279,-0.3285,-0.3306,-0.3283,-0.3282,-0.3221,-0.3214,-0.3203,-0.3158,-0.3154,-0.3158,-0.3156,-0.3155,-0.3154,0,0,0,0,0,0,0,-0.3365,-0.3363,-0.3364,-0.3359,-0.3356,-0.3332,-0.3328,-0.3297,-0.3264,-0.3304,-0.3301,-0.3303,-0.3219,-0.3206,-0.32,-0.3152,-0.3159,-0.3155,-0.3153,-0.3152,-0.3151,-0.3153,0,0,0,0,0,0,-0.3382,-0.3365,-0.3365,-0.3363,-0.3362,-0.3333,-0.3329,-0.3329,-0.3266,-0.3257,-0.3304,-0.3301,-0.3213,-0.3204,-0.3196,-0.3204,-0.3155,-0.3151,-0.3149,-0.3148,-0.3151,-0.3153,0,0,0,0,0,0,-0.3382,-0.3382,-0.3367,-0.3366,-0.3363,-0.3335,-0.3336,-0.3329,-0.3315,-0.3267,-0.3256,-0.3297,-0.3212,-0.3201,-0.3185,-0.3198,-0.315,-0.3147,-0.3146,-0.3149,-0.3152,-0.3207,0,0,0,0,0,0,-0.3382,-0.3382,-0.3384,-0.3368,-0.3364,-0.3375,-0.3337,-0.3329,-0.332,-0.3315,-0.3258,-0.3247,-0.321,-0.3191,-0.3181,-0.3192,-0.3144,-0.3143,-0.3147,-0.3151,-0.3203,-0.3212,-0.322,0,0,0,0,0,-0.3382,-0.3395,-0.3384,-0.3384,-0.3369,-0.3377,-0.3373,-0.3346,-0.3321,-0.3327,-0.3292,-0.3249,-0.321,-0.3189,-0.3178,-0.3188,-0.3141,-0.3146,-0.3151,-0.3199,-0.321,-0.322,0,0,0,0,0,0,-0.3396,-0.339,-0.3378,-0.3388,-0.3389,-0.3369,-0.3368,-0.3351,-0.3328,-0.3316,-0.3264,-0.3253,-0.3255,-0.322,-0.3199,-0.3207,-0.3173,-0.3176,-0.3214,-0.3224,-0.3232,-0.3195,-0.3141,0,0,0,0,0,-0.3402,-0.3403,-0.3402,-0.3407,-0.341,-0.3388,-0.3384,-0.3371,-0.3352,-0.334,-0.3306,-0.3277,-0.3268,-0.3243,-0.3235,-0.3219,-0.313,-0.3226,-0.3234,-0.3241,-0.3208,-0.3126,-0.3122,-0.3169,-0.3169,-0.3169,0,0,-0.3406,-0.3404,-0.3403,-0.341,-0.3399,-0.3412,-0.3382,-0.3385,-0.3387,-0.3332,-0.3321,-0.331,-0.3278,-0.3278,-0.3274,-0.3242,-0.3179,-0.3247,-0.3253,-0.3215,-0.313,-0.3124,-0.3119,-0.3172,-0.3172,-0.3171,0,0,-0.3423,-0.3417,-0.3426,-0.3433,-0.3435,-0.3428,-0.3434,-0.3425,-0.3411,-0.341,-0.3383,-0.3375,-0.3349,-0.3327,-0.3312,-0.336,-0.3244,-0.337,-0.3352,-0.3275,-0.3268,-0.3261,-0.3113,-0.3093,-0.3353,-0.3353,-0.3353,0,-0.3427,-0.3432,-0.3432,-0.345,-0.3441,-0.344,-0.3443,-0.3449,-0.3437,-0.3401,-0.3417,-0.3364,-0.3369,-0.3326,-0.3367,-0.3373,-0.3279,-0.3311,-0.3279,-0.3271,-0.3263,-0.3113,-0.309,-0.3356,-0.3356,-0.3356,-0.3355,0,-0.3457,-0.3456,-0.3465,-0.3476,-0.3479,-0.3482,-0.349,-0.3483,-0.3468,-0.3448,-0.3413,-0.3415,-0.3367,-0.3395,-0.3399,-0.3353,-0.3285,-0.3313,-0.3239,-0.326,-0.3103,-0.3077,-0.3361,-0.336,-0.3359,-0.3358,0,0,-0.3455,-0.3477,-0.3476,-0.3451,-0.3479,-0.3465,-0.3483,-0.3455,-0.3401,-0.3424,-0.3335,-0.3391,-0.3366,-0.335,-0.3352,-0.3298,-0.32,-0.3283,-0.3277,-0.3108,-0.295,-0.289,-0.2855,-0.3211,-0.3208,-0.3205,-0.285,0,-0.3461,-0.3475,-0.3489,-0.3471,-0.3459,-0.3452,-0.3443,-0.3421,-0.3394,-0.3324,-0.3315,-0.327,-0.3357,-0.3322,-0.3297,-0.3226,-0.314,-0.3288,-0.2977,-0.2966,-0.2889,-0.2828,-0.2758,-0.2436,-0.2824,-0.282,-0.2817,0,-0.3477,-0.3464,-0.3461,-0.3398,-0.3388,-0.3393,-0.3304,-0.33,-0.3236,-0.3204,-0.3165,-0.3148,-0.3102,-0.3174,-0.3026,-0.3108,-0.3034,-0.2972,-0.2958,-0.2857,-0.286,-0.2487,-0.2374,-0.2383,-0.2777,-0.278,-0.2783,0,-0.3441,-0.3427,-0.3402,-0.3397,-0.3362,-0.3331,-0.3308,-0.3255,-0.3182,-0.3123,-0.3037,-0.2999,-0.293,-0.2875,-0.2827,-0.29,-0.2606,-0.2689,-0.2534,-0.2525,-0.2379,-0.2364,-0.2213,-0.2542,-0.2542,-0.2543,-0.2544,0,-0.3435,-0.3394,-0.3378,-0.3365,-0.3256,-0.3277,-0.3163,-0.3135,-0.3053,-0.2926,-0.2975,-0.2845,-0.2856,-0.272,-0.2707,-0.2517,-0.2511,-0.2475,-0.2427,-0.2398,-0.2389,-0.2325,-0.2381,-0.253,-0.2533,-0.2536,-0.2538,0,-0.3378,-0.3411,-0.3324,-0.3271,-0.3246,-0.3162,-0.3058,-0.2955,-0.2938,-0.2767,-0.274,-0.2664,-0.2508,-0.2464,-0.2309,-0.2315,-0.2131,-0.2111,-0.2048,-0.2001,-0.1922,-0.1985,-0.1721,-0.1673,-0.1858,-0.1854,-0.1851,0,-0.3339,-0.3311,-0.3212,-0.3127,-0.3097,-0.2995,-0.2902,-0.2887,-0.2785,-0.2637,-0.2523,-0.2361,-0.2216,-0.1964,-0.1928,-0.179,-0.1889,-0.167,-0.1844,-0.1852,-0.1886,-0.1948,-0.1935,-0.1637,-0.1633,-0.1629,-0.1626,0,-0.3171,-0.315,-0.3052,-0.2915,-0.2817,-0.2689,-0.2593,-0.2508,-0.2463,-0.2343,-0.2153,-0.2038,-0.1837,-0.1687,-0.1564,-0.1511,-0.1662,-0.1589,-0.1611,-0.1693,-0.173,-0.1683,-0.1904,-0.1593,-0.1596,-0.1599,-0.16,-0.1602,-0.2949,-0.2837,-0.2729,-0.2573,-0.249,-0.2366,-0.2235,-0.2167,-0.2009,-0.1825,-0.1828,-0.165,-0.1593,-0.1413,-0.1344,-0.1266,-0.1352,-0.1297,-0.1352,-0.1399,-0.1428,-0.1553,-0.122,-0.1221,-0.1222,-0.1223,-0.1224,0,-0.2572,-0.2507,-0.2374,-0.22,-0.2065,-0.2118,-0.1974,-0.1847,-0.1656,-0.1568,-0.143,-0.1343,-0.1223,-0.1207,-0.1144,-0.1091,-0.1101,-0.1078,-0.1168,-0.1154,-0.1235,-0.131,-0.0967,-0.0967,-0.0967,-0.0967,-0.0967,-0.0967,-0.2336,-0.2123,-0.2092,-0.1803,-0.1732,-0.1532,-0.1444,-0.1335,-0.1258,-0.1067,-0.1017,-0.1022,-0.1081,-0.1186,-0.1121,-0.1058,-0.1074,-0.1004,-0.1044,-0.1165,-0.1192,-0.1218,-0.1302,-0.0963,-0.0963,-0.0925,-0.0925,-0.0925]},{"header":{"parameterUnit":"m.s-1","parameterCategory":2,"la1":30.2991,"la2":30.254,"lo1":-89.0895,"lo2":-89.0444,"dy":0.0017,"dx":0.0017,"nx":28,"ny":28,"refTime":"2024-05-01T03:00:00:Z","depth":"0","parameterNumber":3,"parameterNumberName":"V-component_of_CURRENTS"},"data":[0,0,0,0,0,0,0,0,0,0,0,0,0,0,0,0,0,0,0,0,0,0,0,0,0,0,0,0,0,0,0,0,0,0,0,0,0,0,0,0,0,0,0,0,0,0,0,0,0,0,0,0,0,0,0,0,0,0,0.0282,0.0283,0,0.0444,0.0446,0.0448,0.0498,0.0497,0.0496,0.0496,0.0677,0.0683,0.0689,0,0,0,0,0,0,0,0,0,0,0,0,0,0.0038,0.0042,0.0281,0.0283,0.0285,0.0443,0.0446,0.0448,0.0498,0.0497,0.0496,0.0495,0.0676,0.0682,0.0689,0,0,0,0,0,0,0,0,0,0,0,0,0,0.0168,0.0044,0.0281,0.0328,0.0334,0.0443,0.0446,0.0449,0.0499,0.0497,0.0496,0.0495,0.0673,0.0682,0.069,0.0769,0,0,0.0716,0.072,0,0,0,0,0,0,0,0,0.016,0.0177,0.032,0.0325,0.0332,0.0448,0.0427,0.0556,0.0499,0.0438,0.0496,0.0494,0.0603,0.0617,0.0652,0.0778,0.0786,0.0717,0.0722,0.0726,0.0728,0,0,0,0,0,0,0,0.0151,0.017,0.0347,0.0322,0.0329,0.0349,0.0366,0.0452,0.0527,0.0443,0.0447,0.0463,0.0606,0.0644,0.0657,0.0788,0.0717,0.0724,0.0729,0.0733,0.0986,0.0987,0,0,0,0,0,0,0.013,0.0162,0.0342,0.0352,0.024,0.0355,0.0374,0.0413,0.0526,0.0541,0.0464,0.0465,0.063,0.0647,0.0663,0.0711,0.0725,0.0733,0.0738,0.0984,0.0986,0.0988,0,0,0,0,0,0,0.0124,0.0145,0.0335,0.0257,0.0283,0.036,0.0404,0.0417,0.0447,0.0541,0.0557,0.0479,0.0629,0.0651,0.0742,0.072,0.0737,0.0745,0.0982,0.0985,0.0987,0.0841,0,0,0,0,0,0,0.0117,0.0143,0.0163,0.0257,0.0286,0.0384,0.0406,0.0421,0.0459,0.0462,0.0561,0.0576,0.063,0.0729,0.075,0.0732,0.0752,0.098,0.0983,0.0986,0.0844,0.0838,0.0833,0,0,0,0,0,0.0108,0.0136,0.0164,0.0185,0.0313,0.0384,0.0401,0.0451,0.0461,0.0473,0.0549,0.0573,0.0763,0.0738,0.0762,0.0746,0.0979,0.0983,0.0986,0.0846,0.0839,0.0834,0,0,0,0,0,0,0.0049,0.0147,0.0178,0.0238,0.0298,0.0391,0.0409,0.0448,0.052,0.052,0.0604,0.0627,0.0698,0.0762,0.0732,0.0835,0.0872,0.088,0.0757,0.0751,0.0746,0.069,0.0759,0,0,0,0,0,0.0045,0.0084,0.018,0.0222,0.025,0.0329,0.0364,0.04,0.0475,0.0504,0.0575,0.0659,0.0738,0.0773,0.0859,0.092,0.0954,0.0929,0.0923,0.0918,0.0895,0.0942,0.0936,0.1,0.1,0.1,0,0,0.003,0.009,0.0112,0.021,0.0259,0.0286,0.0346,0.0391,0.0407,0.0516,0.0561,0.0651,0.0758,0.082,0.0855,0.0862,0.092,0.0922,0.0916,0.0896,0.0945,0.0938,0.0931,0.1002,0.1002,0.1002,0,0,-0.0005,0.0076,0.008,0.0129,0.0199,0.0254,0.0261,0.0352,0.0383,0.0455,0.0531,0.0601,0.0732,0.0784,0.0832,0.0859,0.09,0.0896,0.0807,0.0852,0.0845,0.084,0.0861,0.0858,0.088,0.0879,0.0879,0,-0.0035,-0.0003,0.009,0.0102,0.0129,0.0228,0.0227,0.0284,0.0389,0.0417,0.0448,0.0627,0.0704,0.077,0.0769,0.0836,0.0869,0.0807,0.0837,0.0833,0.0829,0.0852,0.0851,0.0873,0.0873,0.0874,0.0875,0,-0.0074,-0.005,-0.0044,0.0004,0.0052,0.0069,0.0158,0.02,0.0256,0.0317,0.0404,0.0521,0.0619,0.0654,0.0713,0.0738,0.0771,0.0826,0.0829,0.0812,0.084,0.0841,0.0863,0.0866,0.0868,0.0869,0,0,-0.0154,-0.0091,-0.0093,-0.0083,-0.0003,0.004,0.0064,0.0126,0.0156,0.0244,0.0285,0.0396,0.0465,0.0525,0.0614,0.0639,0.0634,0.0703,0.0709,0.068,0.0716,0.0719,0.0722,0.0692,0.0692,0.0692,0.0737,0,-0.023,-0.0242,-0.018,-0.0182,-0.018,-0.0079,-0.005,0.0027,0.0106,0.018,0.0276,0.0369,0.0417,0.0476,0.0499,0.0634,0.0635,0.0615,0.0776,0.0779,0.0748,0.0722,0.0758,0.08,0.0739,0.0739,0.0739,0,-0.0308,-0.0301,-0.0329,-0.0265,-0.025,-0.0229,-0.0146,-0.0097,0.002,0.0084,0.0163,0.0274,0.0343,0.0396,0.0517,0.0507,0.0577,0.0653,0.0659,0.0707,0.0785,0.0817,0.0805,0.0921,0.0742,0.0742,0.0742,0,-0.042,-0.04,-0.0426,-0.0407,-0.0322,-0.0308,-0.0252,-0.0141,-0.0073,0.0033,0.0096,0.0197,0.0283,0.0369,0.0506,0.0523,0.0635,0.0694,0.0745,0.0746,0.083,0.0838,0.091,0.0737,0.0737,0.0737,0.0737,0,-0.0522,-0.0538,-0.0479,-0.0484,-0.0468,-0.0384,-0.0331,-0.0261,-0.0144,-0.0057,0.0046,0.0125,0.0281,0.0381,0.0479,0.0604,0.0611,0.0707,0.0754,0.0782,0.0786,0.0936,0.099,0.0739,0.0738,0.0738,0.0738,0,-0.0621,-0.0607,-0.0605,-0.0542,-0.0518,-0.0492,-0.0358,-0.0298,-0.021,-0.0096,-0.0061,0.0085,0.0209,0.0342,0.0505,0.0584,0.0772,0.0732,0.0735,0.0779,0.0941,0.0985,0.1087,0.1162,0.0806,0.0806,0.0806,0,-0.0666,-0.0686,-0.063,-0.0603,-0.0572,-0.0512,-0.0449,-0.0341,-0.0265,-0.0115,-0.0064,0.0067,0.0181,0.0387,0.0547,0.0697,0.0788,0.0803,0.0835,0.0927,0.1013,0.1041,0.11,0.0894,0.0895,0.0895,0.0896,0,-0.0711,-0.0693,-0.0671,-0.0631,-0.0581,-0.0509,-0.0427,-0.0383,-0.0245,-0.017,-0.0055,0.0035,0.0243,0.0443,0.062,0.0712,0.0899,0.0823,0.094,0.1085,0.1101,0.1205,0.0869,0.0903,0.0902,0.0902,0.0901,0.0901,-0.0702,-0.0698,-0.066,-0.0615,-0.0563,-0.0502,-0.0445,-0.0369,-0.0278,-0.0151,-0.0067,0.0075,0.0374,0.0643,0.0755,0.0994,0.0971,0.1078,0.1122,0.1139,0.1214,0.0859,0.0933,0.0932,0.0932,0.0932,0.0931,0,-0.0667,-0.0662,-0.0629,-0.0573,-0.0517,-0.0493,-0.0407,-0.0353,-0.0274,-0.0168,-0.0059,0.0256,0.0553,0.0818,0.116,0.1299,0.1352,0.1354,0.1428,0.1476,0.1193,0.12,0.1309,0.1308,0.1308,0.1308,0.1308,0.1308,-0.0643,-0.0615,-0.0613,-0.0531,-0.0491,-0.0412,-0.037,-0.0323,-0.0247,-0.0091,0.0069,0.0213,0.0595,0.1212,0.1557,0.1589,0.1741,0.17,0.1776,0.161,0.1588,0.1568,0.1588,0.1776,0.1776,0.2067,0.207,0.2072]}],[{"header":{"parameterUnit":"m.s-1","parameterCategory":2,"la1":30.2991,"la2":30.254,"lo1":-89.0895,"lo2":-89.0444,"dy":0.0017,"dx":0.0017,"nx":28,"ny":28,"refTime":"2024-05-01T03:00:00:Z","depth":"2","parameterNumber":2,"parameterNumberName":"U-component_of_CURRENTS"},"data":[0,0,0,0,0,0,0,0,0,0,0,0,0,0,0,0,0,0,0,0,0,0,0,0,0,0,0,0,0,0,0,0,0,0,0,0,0,0,0,0,0,0,0,0,0,0,0,0,0,0,0,0,0,0,0,0,0,0,-0.1739,-0.174,0,-0.182,-0.182,-0.1821,-0.1889,-0.189,-0.1892,-0.1893,-0.1883,-0.1881,-0.188,0,0,0,0,0,0,0,0,0,0,0,0,0,-0.1479,-0.1484,-0.1739,-0.174,-0.1742,-0.1819,-0.182,-0.1821,-0.1889,-0.189,-0.1892,-0.1893,-0.1883,-0.1882,-0.188,0,0,0,0,0,0,0,0,0,0,0,0,0,-0.1575,-0.1486,-0.1739,-0.1788,-0.1794,-0.1819,-0.182,-0.1821,-0.1889,-0.1891,-0.1892,-0.1894,-0.1884,-0.1882,-0.188,-0.1833,0,0,-0.1874,-0.1873,0,0,0,0,0,0,0,0,-0.157,-0.1584,-0.1779,-0.1785,-0.1791,-0.185,-0.1725,-0.1822,-0.1888,-0.1848,-0.1893,-0.1895,-0.1865,-0.1864,-0.1871,-0.1832,-0.1832,-0.1873,-0.1872,-0.1871,-0.1871,0,0,0,0,0,0,0,-0.1563,-0.158,-0.1766,-0.1781,-0.1788,-0.175,-0.1767,-0.1743,-0.1841,-0.1852,-0.1858,-0.1873,-0.1867,-0.1873,-0.1871,-0.1832,-0.1873,-0.1872,-0.187,-0.187,-0.1869,-0.187,0,0,0,0,0,0,-0.157,-0.1575,-0.1764,-0.1769,-0.1687,-0.1754,-0.1773,-0.1826,-0.1843,-0.185,-0.1872,-0.1876,-0.1875,-0.1873,-0.1871,-0.1931,-0.1871,-0.1869,-0.1868,-0.1868,-0.1869,-0.1871,0,0,0,0,0,0,-0.1564,-0.1587,-0.1761,-0.1674,-0.1695,-0.1759,-0.1816,-0.1827,-0.1868,-0.186,-0.1864,-0.1908,-0.1877,-0.1874,-0.1894,-0.1927,-0.1869,-0.1867,-0.1867,-0.1868,-0.187,-0.1977,0,0,0,0,0,0,-0.1557,-0.1586,-0.1632,-0.1677,-0.17,-0.1802,-0.1816,-0.1827,-0.1875,-0.1882,-0.1891,-0.1891,-0.1878,-0.1898,-0.1892,-0.1923,-0.1865,-0.1865,-0.1867,-0.1869,-0.1972,-0.1982,-0.199,0,0,0,0,0,-0.1548,-0.1595,-0.1635,-0.1658,-0.1762,-0.1803,-0.1811,-0.1856,-0.1875,-0.1899,-0.1916,-0.1892,-0.1908,-0.1897,-0.1891,-0.1921,-0.1864,-0.1867,-0.1869,-0.1967,-0.198,-0.199,0,0,0,0,0,0,-0.1513,-0.1608,-0.1652,-0.1732,-0.1781,-0.1817,-0.1843,-0.1871,-0.1902,-0.1916,-0.1905,-0.1906,-0.1936,-0.1908,-0.1897,-0.1927,-0.1882,-0.1883,-0.1958,-0.197,-0.1979,-0.1979,-0.1864,0,0,0,0,0,-0.1527,-0.1587,-0.1665,-0.1727,-0.1758,-0.1805,-0.1831,-0.1866,-0.1896,-0.1914,-0.1922,-0.1926,-0.1933,-0.1939,-0.1933,-0.1942,-0.188,-0.1957,-0.1967,-0.1975,-0.197,-0.1919,-0.1923,-0.1879,-0.1879,-0.1879,0,0,-0.1527,-0.1589,-0.1624,-0.1722,-0.1762,-0.1828,-0.1826,-0.1877,-0.1931,-0.1901,-0.1966,-0.1958,-0.1943,-0.1971,-0.198,-0.1958,-0.1952,-0.1979,-0.1986,-0.1976,-0.1922,-0.1926,-0.193,-0.1881,-0.1881,-0.1881,0,0,-0.1555,-0.1618,-0.1688,-0.1737,-0.1818,-0.1844,-0.1869,-0.1929,-0.1958,-0.2008,-0.2008,-0.2021,-0.203,-0.2032,-0.2031,-0.208,-0.2004,-0.2082,-0.2131,-0.2083,-0.2086,-0.2087,-0.1999,-0.1992,-0.2087,-0.2088,-0.2088,0,-0.1562,-0.1671,-0.1705,-0.1788,-0.1828,-0.1862,-0.1934,-0.1968,-0.2027,-0.2024,-0.2045,-0.2053,-0.2059,-0.2071,-0.2116,-0.2102,-0.2046,-0.2094,-0.2095,-0.2095,-0.2095,-0.2004,-0.1995,-0.2093,-0.2092,-0.2092,-0.2091,0,-0.1649,-0.1743,-0.1776,-0.1901,-0.1937,-0.1994,-0.2049,-0.2075,-0.2102,-0.2119,-0.2136,-0.2144,-0.2132,-0.2157,-0.2168,-0.2174,-0.2124,-0.2113,-0.2066,-0.2106,-0.2007,-0.1996,-0.2101,-0.2099,-0.2097,-0.2096,0,0,-0.1657,-0.1813,-0.1833,-0.1879,-0.1999,-0.2011,-0.2091,-0.213,-0.2127,-0.2188,-0.2176,-0.2239,-0.221,-0.2208,-0.2207,-0.2203,-0.218,-0.2179,-0.2174,-0.2091,-0.204,-0.199,-0.1971,-0.2173,-0.2172,-0.2172,-0.1965,0,-0.1726,-0.1864,-0.1935,-0.203,-0.2086,-0.2122,-0.2164,-0.219,-0.2198,-0.2186,-0.2195,-0.219,-0.2239,-0.2225,-0.2235,-0.2185,-0.2157,-0.2234,-0.2013,-0.2005,-0.1957,-0.196,-0.1853,-0.166,-0.1953,-0.1951,-0.195,0,-0.1813,-0.1871,-0.1988,-0.2046,-0.207,-0.2122,-0.2114,-0.2162,-0.2159,-0.2157,-0.2159,-0.2151,-0.2161,-0.219,-0.2124,-0.217,-0.2119,-0.2086,-0.2076,-0.1983,-0.1935,-0.167,-0.1627,-0.193,-0.1931,-0.1933,-0.1934,0,-0.1749,-0.1903,-0.197,-0.2007,-0.2089,-0.2102,-0.2127,-0.2137,-0.2129,-0.2124,-0.2098,-0.2099,-0.2067,-0.2045,-0.2013,-0.2057,-0.1907,-0.1934,-0.1825,-0.1818,-0.1658,-0.1639,-0.1865,-0.1866,-0.1866,-0.1867,-0.1867,0,-0.1779,-0.1817,-0.1937,-0.1952,-0.1956,-0.204,-0.202,-0.2036,-0.2048,-0.1996,-0.2066,-0.2001,-0.2037,-0.1967,-0.1956,-0.1841,-0.1841,-0.1818,-0.1767,-0.1691,-0.1679,-0.1867,-0.187,-0.1859,-0.1861,-0.1862,-0.1863,0,-0.1686,-0.1803,-0.1836,-0.1913,-0.1932,-0.1912,-0.1952,-0.1918,-0.1966,-0.19,-0.19,-0.1899,-0.1817,-0.1821,-0.1733,-0.1727,-0.1646,-0.1598,-0.1495,-0.144,-0.1598,-0.1609,-0.1449,-0.1446,-0.1443,-0.1441,-0.1439,0,-0.1687,-0.1684,-0.1752,-0.175,-0.1783,-0.1789,-0.178,-0.1849,-0.1814,-0.1801,-0.1737,-0.1692,-0.1613,-0.1491,-0.1462,-0.139,-0.1492,-0.1258,-0.1354,-0.1591,-0.1558,-0.1574,-0.1588,-0.1158,-0.1154,-0.115,-0.1147,0,-0.1562,-0.1567,-0.1569,-0.1577,-0.1582,-0.1578,-0.1579,-0.1552,-0.1598,-0.1565,-0.1478,-0.1438,-0.1351,-0.1244,-0.12,-0.1153,-0.1283,-0.1188,-0.1412,-0.1313,-0.1309,-0.128,-0.1304,-0.1117,-0.112,-0.1123,-0.1124,-0.1125,-0.1451,-0.138,-0.1377,-0.1368,-0.1383,-0.1357,-0.1296,-0.1308,-0.1254,-0.1199,-0.122,-0.1142,-0.1149,-0.1026,-0.0967,-0.0944,-0.1043,-0.1036,-0.1049,-0.1065,-0.1102,-0.1097,-0.0867,-0.0869,-0.087,-0.0871,-0.0872,0,-0.1276,-0.1188,-0.1166,-0.1145,-0.1116,-0.1187,-0.1139,-0.1073,-0.0972,-0.0978,-0.0933,-0.0826,-0.0784,-0.0808,-0.0728,-0.0731,-0.0747,-0.0713,-0.075,-0.0778,-0.0804,-0.0832,-0.0523,-0.0523,-0.0522,-0.0521,0,0,-0.1142,-0.1038,-0.1008,-0.0904,-0.0905,-0.0809,-0.0769,-0.0707,-0.0683,-0.0606,-0.0589,-0.0694,-0.0746,-0.0623,-0.0612,-0.0556,-0.0657,-0.0521,-0.0794,-0.0861,-0.0885,-0.0975,-0.1048,0,0,0,0,0]},{"header":{"parameterUnit":"m.s-1","parameterCategory":2,"la1":30.2991,"la2":30.254,"lo1":-89.0895,"lo2":-89.0444,"dy":0.0017,"dx":0.0017,"nx":28,"ny":28,"refTime":"2024-05-01T03:00:00:Z","depth":"2","parameterNumber":3,"parameterNumberName":"V-component_of_CURRENTS"},"data":[0,0,0,0,0,0,0,0,0,0,0,0,0,0,0,0,0,0,0,0,0,0,0,0,0,0,0,0,0,0,0,0,0,0,0,0,0,0,0,0,0,0,0,0,0,0,0,0,0,0,0,0,0,0,0,0,0,0,-0.058,-0.058,0,-0.0501,-0.0499,-0.0498,-0.0459,-0.046,-0.0461,-0.0461,-0.0296,-0.0291,-0.0287,0,0,0,0,0,0,0,0,0,0,0,0,0,-0.0503,-0.0506,-0.058,-0.058,-0.058,-0.0501,-0.0499,-0.0498,-0.0459,-0.046,-0.0461,-0.0461,-0.0298,-0.0292,-0.0286,0,0,0,0,0,0,0,0,0,0,0,0,0,-0.0486,-0.0506,-0.0581,-0.0555,-0.0553,-0.0501,-0.0499,-0.0497,-0.0459,-0.046,-0.0461,-0.0462,-0.03,-0.0293,-0.0285,-0.0223,0,0,-0.0263,-0.026,0,0,0,0,0,0,0,0,-0.0488,-0.0489,-0.0559,-0.0557,-0.0554,-0.0496,-0.0412,-0.0403,-0.0459,-0.0488,-0.0461,-0.0462,-0.0358,-0.0346,-0.0322,-0.0215,-0.0208,-0.0262,-0.0258,-0.0254,-0.0252,0,0,0,0,0,0,0,-0.0489,-0.0491,-0.0543,-0.0559,-0.0556,-0.0481,-0.0481,-0.0409,-0.0413,-0.0486,-0.0484,-0.0485,-0.0356,-0.0329,-0.0318,-0.0206,-0.0262,-0.0256,-0.0251,-0.0248,0.003,0.0033,0,0,0,0,0,0,-0.0521,-0.0493,-0.0546,-0.0541,-0.0529,-0.0483,-0.0482,-0.0509,-0.0416,-0.0405,-0.0484,-0.0483,-0.0342,-0.0327,-0.0312,-0.0196,-0.0255,-0.0248,-0.0243,0.0027,0.0031,0.0034,0,0,0,0,0,0,-0.052,-0.0527,-0.0549,-0.0518,-0.0516,-0.0486,-0.0514,-0.0507,-0.0484,-0.0417,-0.0403,-0.047,-0.0342,-0.0322,-0.0232,-0.0191,-0.0244,-0.0238,0.0023,0.0028,0.0032,0.0014,0,0,0,0,0,0,-0.0518,-0.0528,-0.0554,-0.0521,-0.052,-0.0514,-0.0514,-0.0505,-0.0486,-0.0484,-0.0399,-0.0385,-0.0341,-0.0244,-0.0225,-0.0181,-0.0232,0.002,0.0025,0.0031,0.0011,0.0017,0.0022,0,0,0,0,0,-0.0516,-0.0547,-0.0557,-0.0563,-0.056,-0.0514,-0.0504,-0.0479,-0.0484,-0.0463,-0.0403,-0.0388,-0.0195,-0.0236,-0.0214,-0.0168,0.0017,0.0024,0.003,0.0008,0.0016,0.0022,0,0,0,0,0,0,-0.0528,-0.0545,-0.0555,-0.0593,-0.0557,-0.051,-0.0497,-0.048,-0.0417,-0.0416,-0.0355,-0.0334,-0.0238,-0.0192,-0.0239,-0.0066,-0.0083,-0.0072,-0.0108,-0.01,-0.0094,-0.0102,-0.0226,0,0,0,0,0,-0.0548,-0.0576,-0.056,-0.0586,-0.0574,-0.0536,-0.0517,-0.0496,-0.0442,-0.0417,-0.0355,-0.0277,-0.0191,-0.0143,-0.0065,0.0027,0.0038,0.0077,0.0083,0.0087,0.0099,0.0159,0.0169,0.0056,0.0056,0.0056,0,0,-0.0562,-0.0574,-0.0592,-0.059,-0.0565,-0.0521,-0.0525,-0.0495,-0.0443,-0.0406,-0.0315,-0.0258,-0.0162,-0.0059,-0.0011,-0.0018,0.0119,0.0096,0.0098,0.0108,0.0167,0.0177,0.0186,0.006,0.0059,0.0059,0,0,-0.0569,-0.0612,-0.0617,-0.0585,-0.0555,-0.0521,-0.0514,-0.0459,-0.0424,-0.0337,-0.0289,-0.0206,-0.0083,-0.0,0.0056,0.0149,0.0143,0.0173,0.0201,0.0259,0.0267,0.0275,0.0255,0.0262,0.018,0.018,0.018,0,-0.058,-0.0592,-0.0603,-0.0574,-0.0541,-0.052,-0.0474,-0.0427,-0.0343,-0.0301,-0.0308,-0.0116,-0.0046,0.0094,0.0127,0.0161,0.0159,0.0155,0.0261,0.027,0.0278,0.0257,0.0264,0.018,0.018,0.018,0.018,0,-0.0567,-0.0566,-0.0558,-0.0522,-0.0484,-0.0444,-0.0385,-0.0337,-0.0302,-0.025,-0.013,-0.004,0.0069,0.0114,0.015,0.0263,0.0226,0.0248,0.0226,0.0287,0.0262,0.0269,0.018,0.018,0.018,0.018,0,0,-0.0607,-0.056,-0.0556,-0.0525,-0.0451,-0.0421,-0.0334,-0.0246,-0.0207,-0.0117,-0.0048,0.0112,0.0127,0.0195,0.0249,0.031,0.0352,0.03,0.0303,0.0249,0.0414,0.0408,0.0415,0.0379,0.0381,0.0383,0.0352,0,-0.0581,-0.0536,-0.0504,-0.0431,-0.0394,-0.0335,-0.0263,-0.0185,-0.0127,-0.006,0.0041,0.0122,0.0169,0.0199,0.0277,0.0331,0.038,0.0354,0.0392,0.0392,0.0356,0.0429,0.0403,0.0377,0.036,0.0361,0.0362,0,-0.0572,-0.0536,-0.0477,-0.0396,-0.0375,-0.0325,-0.0231,-0.0163,-0.006,-0.0022,0.0073,0.0123,0.024,0.025,0.0382,0.0352,0.039,0.0426,0.0426,0.044,0.0405,0.0329,0.0392,0.0375,0.0374,0.0373,0.0372,0,-0.0605,-0.052,-0.0479,-0.0447,-0.0349,-0.0307,-0.0252,-0.0154,-0.0111,-0.0015,0.0003,0.0142,0.0182,0.0281,0.0358,0.0364,0.046,0.0476,0.0507,0.0502,0.0502,0.0496,0.0578,0.0578,0.0578,0.0578,0.0578,0,-0.0603,-0.0564,-0.05,-0.0473,-0.0422,-0.0342,-0.0288,-0.0223,-0.0144,-0.0104,0.0002,0.0039,0.0194,0.0263,0.0342,0.0435,0.0449,0.0525,0.0521,0.0492,0.0485,0.0515,0.0508,0.0577,0.0577,0.0577,0.0577,0,-0.0645,-0.0607,-0.0558,-0.0468,-0.0444,-0.0417,-0.0336,-0.0305,-0.0227,-0.0181,-0.0158,-0.0042,0.0057,0.0187,0.0322,0.0398,0.0492,0.0521,0.0437,0.0428,0.0487,0.0481,0.0556,0.0556,0.0556,0.0556,0.0556,0,-0.066,-0.064,-0.0583,-0.0578,-0.054,-0.0489,-0.0461,-0.0365,-0.0335,-0.0237,-0.0228,-0.0119,-0.0029,0.0147,0.0307,0.0445,0.0472,0.0485,0.0541,0.051,0.0498,0.0491,0.0484,0.0498,0.0498,0.0497,0.0497,0,-0.0658,-0.0657,-0.0632,-0.0629,-0.0613,-0.0584,-0.0533,-0.0523,-0.0418,-0.0369,-0.0296,-0.0216,-0.003,0.0139,0.0322,0.04,0.0469,0.0484,0.05,0.0519,0.0458,0.0445,0.044,0.0494,0.0495,0.0495,0.0495,0.0495,-0.066,-0.0675,-0.0665,-0.066,-0.0664,-0.0659,-0.0633,-0.0582,-0.0528,-0.0419,-0.0359,-0.0214,-0.0055,0.0228,0.035,0.0468,0.0479,0.0513,0.0513,0.0514,0.0525,0.047,0.0504,0.0505,0.0505,0.0505,0.0505,0,-0.0628,-0.0658,-0.0679,-0.0685,-0.0699,-0.0684,-0.066,-0.0619,-0.0556,-0.0452,-0.034,-0.0154,0.0035,0.0203,0.0397,0.051,0.0512,0.0516,0.0502,0.0503,0.0505,0.0516,0.0493,0.0493,0.0494,0.0494,0,0,-0.0614,-0.0634,-0.0659,-0.0685,-0.07,-0.069,-0.0674,-0.0624,-0.0544,-0.0424,-0.0302,-0.015,0.0042,0.018,0.0316,0.0414,0.0429,0.0416,0.041,0.0377,0.0377,0.0481,0.0497,0,0,0,0,0]}],[{"header":{"parameterUnit":"m.s-1","parameterCategory":2,"la1":30.2991,"la2":30.254,"lo1":-89.0895,"lo2":-89.0444,"dy":0.0017,"dx":0.0017,"nx":28,"ny":28,"refTime":"2024-05-01T03:00:00:Z","depth":"4","parameterNumber":2,"parameterNumberName":"U-component_of_CURRENTS"},"data":[0,0,0,0,0,0,0,0,0,0,0,0,0,0,0,0,0,0,0,0,0,0,0,0,0,0,0,0,0,0,0,0,0,0,0,0,0,0,0,0,0,0,0,0,0,0,0,0,0,0,0,0,0,0,0,0,0,0,-0.0452,-0.0452,0,-0.0467,-0.0468,-0.0468,-0.0464,-0.0463,-0.0463,-0.0462,-0.0482,-0.0483,-0.0483,0,0,0,0,0,0,0,0,0,0,0,0,0,-0.045,-0.045,-0.0452,-0.0452,-0.0452,-0.0467,-0.0468,-0.0468,-0.0464,-0.0463,-0.0463,-0.0462,-0.0481,-0.0483,-0.0484,0,0,0,0,0,0,0,0,0,0,0,0,0,-0.0457,-0.045,-0.0452,-0.0451,-0.0451,-0.0467,-0.0468,-0.0468,-0.0464,-0.0463,-0.0463,-0.0462,-0.0481,-0.0482,-0.0484,-0.0504,0,0,-0.0488,-0.0488,0,0,0,0,0,0,0,0,-0.0457,-0.0457,-0.0451,-0.0451,-0.0451,-0.0462,-0.0474,-0.048,-0.0464,-0.046,-0.0462,-0.0462,-0.0475,-0.0477,-0.0483,-0.0505,-0.0505,-0.0488,-0.0489,-0.0489,-0.049,0,0,0,0,0,0,0,-0.0456,-0.0457,-0.0459,-0.0452,-0.0452,-0.0461,-0.0461,-0.0475,-0.0472,-0.046,-0.046,-0.046,-0.0476,-0.0481,-0.0483,-0.0506,-0.0488,-0.0489,-0.049,-0.049,-0.0653,-0.0656,0,0,0,0,0,0,-0.0452,-0.0456,-0.0459,-0.0459,-0.0452,-0.0461,-0.0461,-0.046,-0.0471,-0.0472,-0.0461,-0.046,-0.0479,-0.0481,-0.0484,-0.0552,-0.0489,-0.049,-0.0491,-0.065,-0.0654,-0.0658,0,0,0,0,0,0,-0.0451,-0.0452,-0.0458,-0.0458,-0.0459,-0.0461,-0.046,-0.0461,-0.0466,-0.0471,-0.0472,-0.0465,-0.0479,-0.0482,-0.051,-0.0551,-0.0491,-0.0492,-0.0645,-0.0651,-0.0656,-0.0661,0,0,0,0,0,0,-0.0451,-0.0451,-0.0451,-0.0457,-0.0459,-0.0469,-0.0461,-0.0461,-0.0466,-0.0466,-0.0476,-0.0477,-0.0479,-0.0508,-0.0511,-0.0552,-0.0493,-0.0641,-0.0648,-0.0654,-0.0656,-0.0666,-0.0674,0,0,0,0,0,-0.0451,-0.0448,-0.0451,-0.0451,-0.0457,-0.0469,-0.0471,-0.0471,-0.0467,-0.0473,-0.0488,-0.0476,-0.0554,-0.051,-0.0513,-0.0556,-0.0638,-0.0646,-0.0654,-0.0653,-0.0664,-0.0674,0,0,0,0,0,0,-0.0441,-0.0448,-0.0451,-0.0448,-0.046,-0.0468,-0.0468,-0.0474,-0.049,-0.0492,-0.0495,-0.0498,-0.0552,-0.056,-0.0513,-0.0633,-0.0605,-0.0614,-0.0604,-0.0615,-0.0623,-0.0626,-0.0494,0,0,0,0,0,-0.044,-0.0442,-0.0453,-0.0451,-0.0455,-0.0464,-0.0469,-0.0477,-0.049,-0.0495,-0.0512,-0.0546,-0.0591,-0.0601,-0.0642,-0.068,-0.0674,-0.0726,-0.0734,-0.0741,-0.0753,-0.0748,-0.0755,-0.0684,-0.0684,-0.0684,0,0,-0.0437,-0.0439,-0.0441,-0.045,-0.0454,-0.047,-0.0465,-0.0476,-0.0498,-0.0497,-0.0533,-0.0573,-0.0612,-0.0671,-0.0697,-0.0674,-0.0766,-0.0751,-0.0755,-0.0764,-0.0756,-0.0762,-0.0768,-0.0689,-0.0688,-0.0687,0,0,-0.0423,-0.0431,-0.0426,-0.0441,-0.0454,-0.0472,-0.0477,-0.0501,-0.0516,-0.0564,-0.0583,-0.0633,-0.0698,-0.0726,-0.0751,-0.0833,-0.0818,-0.0875,-0.0903,-0.0898,-0.0901,-0.0905,-0.0918,-0.0922,-0.087,-0.087,-0.087,0,-0.0414,-0.0415,-0.0428,-0.0431,-0.0451,-0.0474,-0.049,-0.0511,-0.0548,-0.0572,-0.0584,-0.071,-0.0725,-0.0794,-0.0837,-0.0846,-0.0854,-0.0843,-0.0901,-0.0904,-0.0907,-0.092,-0.0925,-0.0871,-0.0871,-0.0871,-0.0871,0,-0.0399,-0.0408,-0.0407,-0.0427,-0.0456,-0.0472,-0.0513,-0.0548,-0.0588,-0.0618,-0.071,-0.0755,-0.0826,-0.0859,-0.0872,-0.0932,-0.0935,-0.0908,-0.0853,-0.0913,-0.0926,-0.093,-0.0873,-0.0872,-0.0872,-0.0872,0,0,-0.0348,-0.0389,-0.0387,-0.041,-0.0461,-0.0484,-0.0534,-0.0586,-0.0624,-0.0693,-0.0738,-0.0847,-0.0883,-0.0918,-0.095,-0.096,-0.0986,-0.0955,-0.0954,-0.0933,-0.0998,-0.0921,-0.0918,-0.0963,-0.0963,-0.0964,-0.0999,0,-0.0329,-0.0344,-0.0379,-0.0419,-0.0438,-0.05,-0.0551,-0.0611,-0.0672,-0.072,-0.0781,-0.0848,-0.09,-0.0943,-0.0966,-0.0982,-0.0999,-0.0981,-0.0976,-0.0977,-0.0868,-0.092,-0.0966,-0.1002,-0.1003,-0.1004,-0.1005,0,-0.0292,-0.0318,-0.0348,-0.0433,-0.0448,-0.049,-0.0591,-0.064,-0.0713,-0.0763,-0.0842,-0.088,-0.0944,-0.0952,-0.1023,-0.1014,-0.1023,-0.1028,-0.1028,-0.0955,-0.0907,-0.0933,-0.1012,-0.1012,-0.1011,-0.1011,-0.101,0,-0.0243,-0.0296,-0.0327,-0.0351,-0.0447,-0.0491,-0.0557,-0.0654,-0.0701,-0.0779,-0.0817,-0.0902,-0.0945,-0.0975,-0.1026,-0.102,-0.107,-0.104,-0.0988,-0.0983,-0.1033,-0.1029,-0.1071,-0.1071,-0.1071,-0.1071,-0.1071,0,-0.0205,-0.0226,-0.031,-0.0324,-0.0386,-0.0477,-0.0553,-0.0625,-0.0715,-0.0763,-0.0836,-0.0889,-0.0954,-0.0992,-0.1019,-0.1032,-0.1068,-0.1009,-0.0985,-0.1042,-0.1038,-0.1036,-0.1031,-0.1072,-0.1072,-0.1072,-0.1071,0,-0.0144,-0.0183,-0.0218,-0.032,-0.0355,-0.0404,-0.0532,-0.0586,-0.0691,-0.0748,-0.0767,-0.0874,-0.0935,-0.0989,-0.1031,-0.1019,-0.1025,-0.1017,-0.1103,-0.1081,-0.0945,-0.0942,-0.0948,-0.0946,-0.0944,-0.0942,-0.094,0,-0.0112,-0.0126,-0.0199,-0.0218,-0.0264,-0.0353,-0.0412,-0.0547,-0.0604,-0.0743,-0.0751,-0.0837,-0.0897,-0.0919,-0.0975,-0.1001,-0.0995,-0.0992,-0.0957,-0.0956,-0.0932,-0.0932,-0.0931,-0.0937,-0.0937,-0.0936,-0.0935,0,-0.0075,-0.0093,-0.0134,-0.0175,-0.0223,-0.0277,-0.0374,-0.0409,-0.0561,-0.0637,-0.0725,-0.0767,-0.0826,-0.0877,-0.0908,-0.0927,-0.0983,-0.097,-0.0974,-0.0941,-0.0942,-0.0921,-0.0922,-0.0928,-0.0929,-0.093,-0.093,0,-0.0063,-0.0074,-0.0123,-0.0156,-0.0191,-0.0217,-0.0269,-0.0364,-0.0443,-0.06,-0.0624,-0.073,-0.0818,-0.0839,-0.0869,-0.0876,-0.0858,-0.0826,-0.0838,-0.0846,-0.0795,-0.0781,-0.0705,0,0,0,0,0,-0.007,-0.009,-0.011,-0.0148,-0.0162,-0.0186,-0.0261,-0.032,-0.0446,-0.0481,-0.0563,-0.0619,-0.0686,-0.0745,-0.0732,-0.0803,-0.0846,-0.0781,-0.081,-0.0888,-0.0896,-0.0845,0,0,0,0,0,0,-0.0102,-0.0117,-0.0117,-0.0126,-0.0136,-0.0171,-0.0207,-0.0277,-0.032,-0.0437,-0.0481,-0.0562,-0.0636,-0.0684,-0.0715,-0.0728,-0.0728,-0.0844,-0.0842,-0.0883,-0.0891,-0.0897,-0.0848,0,0,0,0,0]},{"header":{"parameterUnit":"m.s-1","parameterCategory":2,"la1":30.2991,"la2":30.254,"lo1":-89.0895,"lo2":-89.0444,"dy":0.0017,"dx":0.0017,"nx":28,"ny":28,"refTime":"2024-05-01T03:00:00:Z","depth":"4","parameterNumber":3,"parameterNumberName":"V-component_of_CURRENTS"},"data":[0,0,0,0,0,0,0,0,0,0,0,0,0,0,0,0,0,0,0,0,0,0,0,0,0,0,0,0,0,0,0,0,0,0,0,0,0,0,0,0,0,0,0,0,0,0,0,0,0,0,0,0,0,0,0,0,0,0,-0.0196,-0.0196,0,-0.0249,-0.0249,-0.025,-0.0207,-0.0205,-0.0203,-0.0202,-0.0187,-0.0189,-0.019,0,0,0,0,0,0,0,0,0,0,0,0,0,-0.0089,-0.0091,-0.0196,-0.0197,-0.0197,-0.0248,-0.0249,-0.025,-0.0207,-0.0205,-0.0203,-0.0201,-0.0187,-0.0188,-0.019,0,0,0,0,0,0,0,0,0,0,0,0,0,-0.0138,-0.0092,-0.0196,-0.0182,-0.0181,-0.0248,-0.0249,-0.025,-0.0208,-0.0205,-0.0202,-0.02,-0.0186,-0.0188,-0.019,-0.0258,0,0,-0.0196,-0.0197,0,0,0,0,0,0,0,0,-0.0136,-0.0142,-0.0183,-0.0183,-0.0182,-0.0218,-0.0206,-0.0249,-0.0209,-0.0198,-0.0202,-0.0198,-0.0193,-0.0195,-0.0212,-0.0257,-0.0256,-0.0196,-0.0198,-0.0199,-0.0199,0,0,0,0,0,0,0,-0.0132,-0.014,-0.0217,-0.0184,-0.0184,-0.0183,-0.0187,-0.0215,-0.021,-0.0199,-0.0196,-0.0202,-0.0192,-0.021,-0.0211,-0.0256,-0.0196,-0.0198,-0.0199,-0.02,-0.0335,-0.0337,0,0,0,0,0,0,-0.0127,-0.0137,-0.0215,-0.0219,-0.0151,-0.0187,-0.0192,-0.021,-0.0211,-0.0209,-0.0204,-0.02,-0.0208,-0.0209,-0.021,-0.0256,-0.0198,-0.02,-0.0202,-0.0332,-0.0335,-0.0338,0,0,0,0,0,0,-0.0125,-0.0134,-0.0213,-0.0178,-0.0187,-0.0192,-0.0213,-0.0212,-0.0223,-0.0215,-0.0211,-0.0214,-0.0206,-0.0207,-0.0243,-0.0256,-0.0201,-0.0203,-0.033,-0.0333,-0.0336,-0.0369,0,0,0,0,0,0,-0.0122,-0.0133,-0.0149,-0.0178,-0.0189,-0.0259,-0.0215,-0.0215,-0.0231,-0.0226,-0.0223,-0.0219,-0.0204,-0.024,-0.0245,-0.0258,-0.0205,-0.0327,-0.0331,-0.0335,-0.0365,-0.0374,-0.0381,0,0,0,0,0,-0.0118,-0.0155,-0.015,-0.016,-0.021,-0.0261,-0.0268,-0.0261,-0.0234,-0.0257,-0.0254,-0.0219,-0.0271,-0.0245,-0.0249,-0.0263,-0.0324,-0.033,-0.0335,-0.0362,-0.0372,-0.0381,0,0,0,0,0,0,-0.0122,-0.0155,-0.015,-0.0196,-0.0226,-0.0253,-0.0277,-0.0271,-0.029,-0.0282,-0.0258,-0.0257,-0.0288,-0.029,-0.026,-0.0319,-0.029,-0.0296,-0.0308,-0.0318,-0.0326,-0.0296,-0.0206,0,0,0,0,0,-0.0132,-0.0162,-0.0194,-0.0231,-0.0248,-0.0264,-0.0283,-0.0285,-0.0303,-0.0308,-0.0308,-0.0312,-0.0322,-0.0328,-0.0345,-0.0389,-0.0329,-0.0401,-0.0409,-0.0415,-0.0398,-0.0336,-0.0334,-0.0355,-0.0355,-0.0355,0,0,-0.0142,-0.0166,-0.0182,-0.0233,-0.0255,-0.0296,-0.0269,-0.0311,-0.0334,-0.0307,-0.0344,-0.0344,-0.0342,-0.0379,-0.0393,-0.0375,-0.038,-0.0422,-0.0427,-0.0406,-0.0341,-0.0338,-0.0335,-0.0359,-0.0358,-0.0358,0,0,-0.0188,-0.0203,-0.0246,-0.0275,-0.0317,-0.033,-0.0342,-0.0381,-0.0383,-0.0435,-0.0404,-0.0412,-0.0456,-0.0438,-0.0435,-0.0504,-0.0424,-0.052,-0.053,-0.047,-0.0466,-0.0462,-0.0374,-0.0361,-0.0521,-0.0521,-0.0522,0,-0.0196,-0.0252,-0.0268,-0.0317,-0.0337,-0.0344,-0.0389,-0.0409,-0.0452,-0.0452,-0.0453,-0.0475,-0.0476,-0.0473,-0.0495,-0.0515,-0.0458,-0.0487,-0.0473,-0.0468,-0.0463,-0.0374,-0.036,-0.0524,-0.0523,-0.0523,-0.0523,0,-0.0274,-0.0314,-0.0345,-0.0397,-0.0425,-0.047,-0.0491,-0.0514,-0.0518,-0.0527,-0.054,-0.0543,-0.0539,-0.0552,-0.0545,-0.0518,-0.0481,-0.0485,-0.0434,-0.0461,-0.0368,-0.0352,-0.0527,-0.0526,-0.0525,-0.0525,0,0,-0.0293,-0.038,-0.0389,-0.041,-0.0466,-0.0492,-0.053,-0.0555,-0.055,-0.059,-0.0575,-0.0603,-0.058,-0.0576,-0.0559,-0.0515,-0.0436,-0.0488,-0.0484,-0.0372,-0.0272,-0.0301,-0.0286,-0.0431,-0.0429,-0.0427,-0.0215,0,-0.0342,-0.0433,-0.0464,-0.0526,-0.0563,-0.0569,-0.0593,-0.061,-0.0616,-0.0609,-0.059,-0.0584,-0.0595,-0.0577,-0.0541,-0.0461,-0.0399,-0.0491,-0.0287,-0.028,-0.0279,-0.0271,-0.0421,-0.0203,-0.0199,-0.0197,-0.0195,0,-0.0402,-0.0448,-0.0527,-0.0561,-0.0575,-0.0611,-0.0611,-0.0635,-0.0623,-0.062,-0.0605,-0.0582,-0.0528,-0.0533,-0.0391,-0.0446,-0.036,-0.0296,-0.0286,-0.0286,-0.0281,-0.0176,-0.0165,-0.0168,-0.017,-0.0172,-0.0173,0,-0.0391,-0.048,-0.0534,-0.0555,-0.0607,-0.0622,-0.0637,-0.0641,-0.0635,-0.0611,-0.0588,-0.054,-0.0486,-0.0396,-0.0294,-0.0324,-0.0115,-0.0139,-0.0072,-0.0071,-0.0088,-0.0094,-0.0015,-0.0015,-0.0016,-0.0016,-0.0017,0,-0.0414,-0.0455,-0.0535,-0.0558,-0.0591,-0.0623,-0.0634,-0.0638,-0.0622,-0.0599,-0.0585,-0.0533,-0.0448,-0.0337,-0.0254,-0.0112,-0.0078,-0.0051,-0.0021,-0.011,-0.0122,-0.0074,-0.0084,-0.0008,-0.001,-0.0012,-0.0013,0,-0.0396,-0.0458,-0.0512,-0.0573,-0.0593,-0.0611,-0.0634,-0.0627,-0.0618,-0.0576,-0.0559,-0.0488,-0.0356,-0.0258,-0.0081,-0.0048,0.0082,0.0129,0.0061,0.0082,0.0087,0.0072,0.0236,0.0236,0.0237,0.0237,0.0238,0,-0.0399,-0.0426,-0.051,-0.0535,-0.0569,-0.0602,-0.0613,-0.0624,-0.0608,-0.0543,-0.0506,-0.0386,-0.0332,-0.0086,-0.0011,0.0162,0.016,0.0238,0.0122,0.0098,0.0112,0.0096,0.0082,0.0239,0.0239,0.0239,0.0239,0,-0.0368,-0.0404,-0.0453,-0.0512,-0.0546,-0.0563,-0.058,-0.0565,-0.0551,-0.0541,-0.0433,-0.0341,-0.0191,-0.0068,0.0065,0.0175,0.018,0.0244,0.0243,0.0134,0.0103,0.0114,0.0098,0.0241,0.0241,0.0241,0.024,0,-0.034,-0.0371,-0.0435,-0.0482,-0.0521,-0.0518,-0.0531,-0.0505,-0.0487,-0.0434,-0.0388,-0.0265,-0.0196,-0.0055,0.0068,0.0162,0.0163,0.0169,0.0171,0.017,0.0045,-0.001,0.0141,0,0,0,0,0,-0.0294,-0.0338,-0.0388,-0.0447,-0.0478,-0.0489,-0.0503,-0.0508,-0.0499,-0.0419,-0.0407,-0.0277,-0.012,-0.005,0.0045,0.0061,0.0171,0.0171,0.0178,0.0252,0.025,0.0105,0,0,0,0,0,0,-0.0281,-0.0331,-0.0381,-0.0398,-0.0419,-0.0438,-0.0442,-0.0436,-0.0394,-0.0379,-0.0287,-0.0264,-0.0103,-0.0159,0.0051,0.0075,0.0087,0.024,0.0241,0.0254,0.0251,0.025,0.01,0,0,0,0,0]}]]